This is the latest recevied weather packets stored in our database for station/object DG6YGE-6. If no packets are shown the sender has not sent any weather packets the latest 10 day(s).
| Time | Temp. | Humidity | Pressure | Rain* | Wind** | Luminosity | Snow |
|---|---|---|---|---|---|---|---|
| 1777788552 | 13.89° C | 94% | 1010.6 hPa | 0 mm | - | 142 W/m² | - |
| 1777787952 | 13.89° C | 94% | 1010.7 hPa | 0 mm | - | 98 W/m² | - |
| 1777787352 | 13.89° C | 94% | 1010.7 hPa | 0 mm | - | 95 W/m² | - |
| 1777786753 | 13.33° C | 94% | 1010.7 hPa | 0 mm | - | 90 W/m² | - |
| 1777786152 | 13.33° C | 94% | 1010.8 hPa | 0 mm | - | 103 W/m² | - |
| 1777785552 | 13.33° C | 94% | 1011 hPa | 0 mm | - | 110 W/m² | - |
| 1777784952 | 13.33° C | 94% | 1011 hPa | 0 mm | - | 82 W/m² | - |
| 1777784352 | 12.78° C | 93% | 1011.1 hPa | 0 mm | - | 88 W/m² | - |
| 1777783753 | 12.78° C | 93% | 1011.3 hPa | 0 mm | - | 58 W/m² | - |
| 1777783152 | 12.78° C | 93% | 1011.3 hPa | 0 mm | - | 39 W/m² | - |
| 1777782552 | 12.78° C | 93% | 1011.4 hPa | 0 mm | - | 23 W/m² | - |
| 1777781952 | 12.78° C | 93% | 1011.4 hPa | 0 mm | - | 11 W/m² | - |
| 1777781352 | 12.78° C | 93% | 1011.4 hPa | 0 mm | - | 5 W/m² | - |
| 1777780753 | 12.22° C | 93% | 1011.4 hPa | 0 mm | - | 0 W/m² | - |
| 1777780153 | 12.22° C | 92% | 1011.4 hPa | 0 mm | - | 0 W/m² | - |
| 1777779552 | 12.22° C | 92% | 1011.3 hPa | 0 mm | - | 0 W/m² | - |
| 1777778952 | 12.22° C | 92% | 1011.2 hPa | 0 mm | - | 0 W/m² | - |
| 1777778352 | 12.22° C | 92% | 1011.4 hPa | 0 mm | - | 0 W/m² | - |
| 1777777752 | 12.22° C | 92% | 1011.5 hPa | 0 mm | - | 0 W/m² | - |
| 1777777152 | 12.22° C | 91% | 1011.6 hPa | 0 mm | - | 0 W/m² | - |
| 1777776552 | 12.78° C | 92% | 1011.7 hPa | 0 mm | - | 0 W/m² | - |
| 1777775952 | 12.22° C | 91% | 1011.8 hPa | 0 mm | - | 0 W/m² | - |
| 1777775352 | 12.78° C | 92% | 1011.9 hPa | 0 mm | - | 0 W/m² | - |
| 1777774752 | 12.78° C | 91% | 1011.9 hPa | 0 mm | - | 0 W/m² | - |
| 1777774152 | 12.78° C | 91% | 1012.1 hPa | 0 mm | - | 0 W/m² | - |
* Rain latest hour (hover to see other rain measurements)
** Current wind speed in m/s (hover to see current wind gust speed)